TimeEDT,TemperatureF,Dew PointF,Humidity,Sea Level PressureIn,VisibilityMPH,Wind Direction,Wind SpeedMPH,Gust SpeedMPH,PrecipitationIn,Events,Conditions,WindDirDegrees,DateUTC
12:53 AM,37.9,28.9,70,30.58,10.0,ENE,3.5,-,N/A,,Clear,60,2013-04-23 04:53:00
1:24 AM,37.4,28.4,70,30.57,10.0,NE,4.6,-,N/A,,Mostly Cloudy,50,2013-04-23 05:24:00
1:53 AM,39.0,30.0,70,30.56,10.0,NE,3.5,-,N/A,,Overcast,40,2013-04-23 05:53:00
2:53 AM,39.9,30.9,70,30.53,10.0,ENE,4.6,-,N/A,,Overcast,70,2013-04-23 06:53:00
3:53 AM,39.9,30.9,70,30.51,10.0,NE,5.8,-,N/A,,Overcast,50,2013-04-23 07:53:00
4:53 AM,41.0,32.0,70,30.49,10.0,NE,6.9,-,N/A,,Overcast,50,2013-04-23 08:53:00
5:53 AM,39.2,33.8,81,30.49,9.0,ENE,6.9,-,N/A,,Overcast,60,2013-04-23 09:53:00
6:07 AM,39.2,33.8,81,30.49,7.0,ENE,8.1,-,N/A,,Overcast,60,2013-04-23 10:07:00
6:37 AM,39.2,35.6,87,30.49,2.0,ENE,6.9,-,N/A,,Overcast,60,2013-04-23 10:37:00
6:53 AM,39.9,37.0,89,30.48,2.0,ENE,8.1,-,N/A,,Overcast,60,2013-04-23 10:53:00
7:53 AM,39.9,37.9,93,30.48,1.5,ENE,6.9,-,N/A,,Overcast,60,2013-04-23 11:53:00
8:53 AM,41.0,37.9,89,30.47,2.0,NE,9.2,-,0.01,,Overcast,50,2013-04-23 12:53:00
9:53 AM,41.0,37.9,89,30.45,1.5,NE,11.5,-,N/A,,Overcast,40,2013-04-23 13:53:00
10:15 AM,41.0,39.2,93,30.46,2.0,NE,9.2,17.3,N/A,,Overcast,40,2013-04-23 14:15:00
10:53 AM,41.0,39.0,93,30.44,1.8,NNE,12.7,-,N/A,,Overcast,30,2013-04-23 14:53:00
11:13 AM,42.8,39.2,87,30.45,2.0,NE,9.2,-,0.01,,Overcast,50,2013-04-23 15:13:00
11:35 AM,42.8,39.2,87,30.43,1.5,ENE,11.5,-,0.01,,Overcast,60,2013-04-23 15:35:00
11:53 AM,42.1,39.0,89,30.43,2.5,ENE,15.0,19.6,0.01,,Overcast,60,2013-04-23 15:53:00
12:53 PM,42.1,39.0,89,30.39,2.5,NNE,13.8,18.4,N/A,,Overcast,30,2013-04-23 16:53:00
1:00 PM,42.8,39.2,87,30.40,4.0,NE,13.8,19.6,N/A,,Overcast,50,2013-04-23 17:00:00
1:53 PM,42.1,39.0,89,30.37,4.0,NE,11.5,19.6,N/A,,Overcast,40,2013-04-23 17:53:00
2:53 PM,42.1,39.0,89,30.33,2.0,NE,10.4,18.4,0.00,Rain,Light Rain,40,2013-04-23 18:53:00
3:31 PM,42.8,39.2,87,30.32,3.0,NE,12.7,20.7,0.00,,Overcast,40,2013-04-23 19:31:00
3:53 PM,42.1,39.0,89,30.31,6.0,NE,15.0,20.7,0.00,,Overcast,40,2013-04-23 19:53:00
4:44 PM,42.8,39.2,87,30.30,2.5,NNE,13.8,21.9,0.01,Rain,Light Rain,20,2013-04-23 20:44:00
4:53 PM,42.1,39.0,89,30.30,2.5,NNE,12.7,20.7,0.01,Rain,Light Rain,20,2013-04-23 20:53:00
5:45 PM,42.8,39.2,87,30.29,1.8,NNE,13.8,23.0,0.02,Rain,Light Rain,20,2013-04-23 21:45:00
5:53 PM,42.1,39.0,89,30.28,2.0,NNE,9.2,23.0,0.02,Rain,Light Rain,30,2013-04-23 21:53:00
6:07 PM,42.8,39.2,87,30.27,1.8,NNE,12.7,18.4,0.00,Rain,Light Rain,30,2013-04-23 22:07:00
6:21 PM,42.8,39.2,87,30.26,2.5,NNE,11.5,19.6,0.01,Rain,Light Rain,20,2013-04-23 22:21:00
6:53 PM,42.1,39.0,89,30.24,2.0,NE,11.5,21.9,0.01,Rain,Light Rain,40,2013-04-23 22:53:00
7:53 PM,42.1,39.0,89,30.22,3.0,NNE,15.0,28.8,0.02,Rain,Light Rain,20,2013-04-23 23:53:00
8:53 PM,42.1,39.0,89,30.20,3.0,NNE,11.5,24.2,0.02,Rain,Light Rain,30,2013-04-24 00:53:00
9:53 PM,42.1,39.0,89,30.17,3.0,NNE,10.4,25.3,0.02,Rain,Light Rain,30,2013-04-24 01:53:00
10:53 PM,42.1,39.9,92,30.15,2.5,NNE,17.3,26.5,0.00,Rain,Light Rain,20,2013-04-24 02:53:00
11:29 PM,42.8,39.2,87,30.13,1.8,NNE,16.1,23.0,0.01,Rain,Light Rain,20,2013-04-24 03:29:00
11:39 PM,42.8,39.2,87,30.13,2.0,NNE,11.5,25.3,0.01,Rain,Light Rain,30,2013-04-24 03:39:00
11:53 PM,43.0,39.9,89,30.11,2.0,NNE,11.5,25.3,0.01,Rain,Light Rain,20,2013-04-24 03:53:00